THORAD AGENA D DEB, 42526

Orbit data source: Space-Track

THORAD AGENA D DEB, 42526 is space debris in SSO originally from a launch on Wed, 08 Apr 1970 UTC launched from the Air Force Western Test Range (AFWTR). Debris objects in space refer to the collection of defunct objects orbiting the Earth. Examples of debris include non-operational satellites, rocket bodies, and fragments generated from explosions, collisions, or faulty payload assembly.

Loading next visibility...
Identifier
42526, 1970-025SG
Orbit
SSO
Country
Flag of USUS
Related business
Manufacturer
Unknown
Mission
Spacecraft
Bus & Motor
Unknown
Mass
Unknown
Launch date (UTC)
1970-04-08 (56 years ago)
Launch vehicle
Unknown
Launch site
Air Force Western Test Range (AFWTR)
Object type
Payload
Rocket body
Debris
Shape & HBR
Unknown shape, 0.1 m
Radar Cross Section
Small (<0.1 m²)

Expand to show TLE details & history
Last TLE update: 2 days ago

TLE from 2 days ago
0 THORAD AGENA D DEB
1 42526U 70025SG  26125.07180772  .00000159  00000-0  15650-3 0  9996
2 42526  99.8082  66.5272 0086117 240.7172 134.5181 13.92827523631589
Epoch: 2026-05-05T01:43Z
TLE epoch observation values (Epoch: 2026-05-05T01:43:24.187Z)
Latitude
15.67485°
Longitude
174.95836°
Altitude
965.241 km
Speed
7.348 km/s
True Right ascension
04h 15m 02s
True Declination
15° 35' 17"
Sunlit
Object was in daylight at epoch
Visualization orbit readout
Latitude
Unknown
Longitude
Unknown
Altitude
Unknown
Speed
Unknown
Apparent Right ascension
Unknown
Apparent Declination
Unknown
Sunlit
N/A
Visualization observer readout
Local Sidereal Time
17:25:25
Azimuth
Unknown
Elevation
Unknown
Doppler factor
Unknown
Orbital elements
Apogee altitude
978.803 km
Perigee altitude
853.174 km
Semi-major axis
7,294.126 km
Eccentricity
0.00861
Inclination
99.8082°
RAAN
66.5272°
Arg. of periapsis
240.7172°
True anomaly
135.21645°
Mean anomaly
134.5181°
Eccentric anomaly
134.8678°
Mean motion
3.48404 °/min
Orbital period
103.33 mins
BSTAR
0.0001565
Loading maneuver chart data...
Computing Atmospheric mass density...

Documentation

Showing up to 5 results
|